Regional Weather Roundup
Issued by NWS Jackson, KY

Home | Current Version | Previous Version | Graphics & Text | Print | Product List | Glossary On
Versions: 1 2 3 4 5 6 7 8 9 10 11 12 13 14 15 16 17 18 19 20 21 22 23 24 25 26 27 28 29 30 31 32 33 34 35 36 37 38 39 40 41 42 43 44 45 46 47 48 49 50
000
ASUS43 KJKL 031510
RWRJKL

EAST KENTUCKY HOURLY WEATHER ROUNDUP
NATIONAL WEATHER SERVICE JACKSON KY
1100 AM EDT WED JUN 03 2015

NOTE: "FAIR" INDICATES FEW OR NO CLOUDS BELOW 12,000 FEET WITH
NO SIGNIFICANT WEATHER AND/OR OBSTRUCTIONS TO VISIBILITY.

* THESE REPORTS ARE NOT UNDER NWS QUALITY CONTROL AND MAY NOT
  REPORT WEATHER SUCH AS PRECIPITATION AND FOG.

KYZ079-080-083-085-087-088-110-112-115-119-120-031600
...EASTERN KENTUCKY...

CITY           SKY/WX    TMP DP  RH WIND       PRES   REMARKS
JACKSON        CLOUDY    61  56  83 CALM      30.08S
LONDON         CLOUDY    63  55  75 E6        30.07S
SOMERSET*      CLOUDY    61  59  94 CALM      30.08S FOG
MONTICELLO*    CLOUDY    63  60  90 NE5       30.08F
MIDDLESBORO*   CLOUDY    68  59  73 CALM      30.06R
HARLAN APT*    PTSUNNY   68  57  68 CALM      30.06S
HAZARD APT*    CLOUDY    61  59  94 CALM      30.08S
BLACK MTN*       N/A     64  57  77 NE2         N/A
PIKEVILLE APT* CLOUDY    59  59 100 E5        30.08S
BIG SANDY*     CLOUDY    63  59  85 S3        30.07S
MOREHEAD APT*  PTSUNNY   61  57  88 NE7       30.10S
$$

KYZ035-036-041-042-044-050-067-078-099-031600
...CENTRAL KENTUCKY...

CITY           SKY/WX    TMP DP  RH WIND       PRES   REMARKS
MT STERLING*   CLOUDY    61  55  82 SE5       30.09S
FLEMING/MASON* CLOUDY    63  55  77 CALM      30.09S
DANVILLE*      CLOUDY    61  55  82 E5        30.08S
RICHMOND*      CLOUDY    63  55  77 E6        30.07R
LEXINGTON      CLOUDY    62  56  80 E7        30.07S
FRANKFORT      CLOUDY    62  55  77 E5        30.06F
$$

KYZ091>093-OHZ055-061-077-WVZ005-015-034-035-042-031600
...SOUTHERN OHIO/WEST VIRGINIA...

CITY           SKY/WX    TMP DP  RH WIND       PRES   REMARKS
COVINGTON      CLOUDY    63  56  78 NE3       30.08F HAZE
COLUMBUS       CLOUDY    66  56  70 NE6       30.09F
DAYTON         CLOUDY    64  57  78 NE5       30.10F
WILMINGTON     CLOUDY    64  56  75 MISG      30.08F
HUNTINGTON     CLOUDY    61  57  87 VRB5      30.08R
CHARLESTON     PTSUNNY   68  60  75 N3        30.07F
PINEVILLE*     CLOUDY    67  61  80 MISG      30.13S
BECKLEY        CLOUDY    63  56  78 SE9       30.13R
BLUEFIELD      CLOUDY    61  56  83 CALM      30.14R
$$

VAZ002-007-008-TNZ017-027-036-066-071-031600
...SOUTHWEST VIRGINIA/EAST TENNESSEE...

CITY           SKY/WX    TMP DP  RH WIND       PRES   REMARKS
WISE*          CLOUDY    63  63 100 SE5       30.11S
JONESVILLE*    MOSUNNY   68  59  73 S6        30.07F
ABINGDON*      MOSUNNY   72  62  72 E7        30.08S
BRISTOL        MOSUNNY   69  61  75 S3        30.06S
KNOXVILLE      PTSUNNY   68  61  78 E5        30.02F
OAK RIDGE      PTSUNNY   71  59  65 VRB5      30.04S
CROSSVILLE     PTSUNNY   68  58  70 VRB3      30.06S
NASHVILLE      CLOUDY    67  59  75 NE3       30.04F
$$

...KEY TO REMARKS...
VSB - VISIBILITY IN MILES
WCI - WIND CHILL INDEX
HX  - HEAT INDEX

$$



USA.gov is the U.S. government's official web portal to all federal, state and local government web resources and services.